�������l�o���
Date,Time,MP-1(��Sv/h),MP-2(��Sv/h),MP-3(��Sv/h),MP-4(��Sv/h),MP-5(��Sv/h),MP-6(��Sv/h),MP-7(��Sv/h),MP-8(��Sv/h),����,����(m/s),���J
2018/10/10,00:00,0.799,1.207,0.848,1.504,1.085,0.468,0.817,0.769,���k��,0.6,��
2018/10/10,00:10,0.802,1.209,0.848,1.504,1.084,0.467,0.814,0.769,�k��,0.8,��
2018/10/10,00:20,0.800,1.210,0.847,1.503,1.088,0.468,0.815,0.771,-,CALM,��
2018/10/10,00:30,0.799,1.211,0.846,1.503,1.086,0.468,0.817,0.768,-,CALM,��
2018/10/10,00:40,0.799,1.208,0.847,1.504,1.085,0.467,0.816,0.769,-,CALM,��
2018/10/10,00:50,0.802,1.209,0.848,1.503,1.084,0.467,0.815,0.771,-,CALM,��
2018/10/10,01:00,0.802,1.208,0.847,1.506,1.083,0.468,0.815,0.769,�k,0.9,��
2018/10/10,01:10,0.799,1.208,0.849,1.502,1.083,0.468,0.815,0.769,�k,1.2,��
2018/10/10,01:20,0.801,1.210,0.849,1.502,1.084,0.467,0.815,0.771,�k�k��,0.9,��
2018/10/10,01:30,0.801,1.208,0.848,1.507,1.084,0.467,0.814,0.770,�k��,0.8,��
2018/10/10,01:40,0.800,1.207,0.846,1.505,1.085,0.467,0.814,0.772,�k��,0.6,��
2018/10/10,01:50,0.798,1.208,0.848,1.504,1.084,0.467,0.815,0.770,���쓌,0.9,��
2018/10/10,02:00,0.800,1.207,0.848,1.505,1.084,0.467,0.816,0.768,��,0.9,��
2018/10/10,02:10,0.800,1.207,0.848,1.503,1.083,0.467,0.815,0.769,�k��,0.6,��
2018/10/10,02:20,0.799,1.212,0.847,1.505,1.085,0.466,0.815,0.769,���k��,0.9,��
2018/10/10,02:30,0.797,1.207,0.845,1.505,1.083,0.467,0.814,0.770,�k��,0.8,��
2018/10/10,02:40,0.799,1.206,0.848,1.503,1.083,0.466,0.815,0.770,-,CALM,��
2018/10/10,02:50,0.800,1.207,0.848,1.503,1.082,0.465,0.815,0.770,��,0.8,��
2018/10/10,03:00,0.799,1.206,0.846,1.503,1.085,0.466,0.816,0.769,���k��,0.6,��
2018/10/10,03:10,0.800,1.207,0.846,1.502,1.082,0.467,0.816,0.769,�k��,0.6,��
2018/10/10,03:20,0.797,1.206,0.848,1.502,1.082,0.466,0.815,0.769,�k��,1.2,��
2018/10/10,03:30,0.796,1.205,0.847,1.503,1.086,0.467,0.814,0.771,�k�k��,0.6,��
2018/10/10,03:40,0.798,1.206,0.844,1.503,1.083,0.466,0.815,0.769,�k��,0.9,��
2018/10/10,03:50,0.799,1.206,0.847,1.504,1.081,0.467,0.816,0.770,�k,0.9,��
2018/10/10,04:00,0.797,1.207,0.846,1.501,1.084,0.466,0.815,0.770,�k��,1.1,��
2018/10/10,04:10,0.798,1.206,0.846,1.505,1.083,0.466,0.815,0.770,�k�k��,1.1,��
2018/10/10,04:20,0.797,1.208,0.847,1.503,1.082,0.466,0.815,0.768,�k�k��,1.1,��
2018/10/10,04:30,0.799,1.206,0.848,1.503,1.084,0.466,0.813,0.770,�k,0.9,��
2018/10/10,04:40,0.797,1.204,0.847,1.503,1.083,0.467,0.815,0.769,�k�k��,1.1,��
2018/10/10,04:50,0.797,1.206,0.847,1.504,1.081,0.466,0.813,0.771,�k�k��,1.1,��
2018/10/10,05:00,0.797,1.207,0.848,1.499,1.081,0.467,0.815,0.768,�k��,1.2,��
2018/10/10,05:10,0.799,1.204,0.846,1.502,1.084,0.466,0.814,0.769,�k��,1.2,��
2018/10/10,05:20,0.798,1.205,0.846,1.502,1.083,0.465,0.814,0.768,���k��,0.9,��
2018/10/10,05:30,0.798,1.205,0.846,1.500,1.082,0.467,0.816,0.770,���k��,1.2,��
2018/10/10,05:40,0.798,1.207,0.845,1.501,1.083,0.466,0.815,0.768,�k��,1.2,��
2018/10/10,05:50,0.796,1.204,0.845,1.501,1.082,0.465,0.814,0.769,�k�k��,1.4,��
2018/10/10,06:00,0.799,1.205,0.848,1.503,1.082,0.467,0.814,0.769,�k�k��,0.8,��
2018/10/10,06:10,0.796,1.205,0.847,1.500,1.081,0.465,0.815,0.768,�k��,0.9,��
2018/10/10,06:20,0.798,1.205,0.844,1.502,1.083,0.466,0.815,0.769,�k��,1.2,��
2018/10/10,06:30,0.796,1.205,0.846,1.502,1.082,0.465,0.814,0.769,��,0.8,��
2018/10/10,06:40,0.799,1.204,0.846,1.503,1.084,0.466,0.815,0.770,�k��,0.6,��
2018/10/10,06:50,0.797,1.204,0.845,1.502,1.082,0.465,0.817,0.771,�k��,0.8,��
2018/10/10,07:00,0.798,1.201,0.847,1.503,1.083,0.467,0.817,0.769,�k�k��,0.8,��
2018/10/10,07:10,0.798,1.208,0.847,1.504,1.083,0.466,0.814,0.770,�k�k��,0.8,��
2018/10/10,07:20,0.796,1.206,0.846,1.505,1.083,0.466,0.816,0.769,�k�k��,0.9,��
2018/10/10,07:30,0.798,1.202,0.846,1.504,1.085,0.466,0.815,0.770,�k�k��,0.9,��
2018/10/10,07:40,0.798,1.206,0.845,1.505,1.082,0.466,0.816,0.770,���k��,1.1,��
2018/10/10,07:50,0.800,1.206,0.845,1.503,1.083,0.465,0.815,0.770,��,1.5,��
2018/10/10,08:00,0.799,1.204,0.846,1.504,1.081,0.467,0.812,0.771,���k��,1.7,��
2018/10/10,08:10,0.800,1.204,0.845,1.503,1.084,0.465,0.815,0.769,���k��,1.5,��
2018/10/10,08:20,0.800,1.205,0.847,1.502,1.084,0.466,0.812,0.769,���쓌,2.2,��
2018/10/10,08:30,0.797,1.202,0.844,1.503,1.082,0.466,0.814,0.771,��,2.3,��
2018/10/10,08:40,0.799,1.202,0.844,1.502,1.082,0.463,0.813,0.771,���k��,2.0,��
2018/10/10,08:50,0.798,1.204,0.845,1.501,1.084,0.465,0.813,0.770,��,2.6,��
2018/10/10,09:00,0.796,1.204,0.844,1.500,1.085,0.465,0.815,0.770,��,2.0,��
2018/10/10,09:10,0.797,1.203,0.845,1.504,1.083,0.465,0.814,0.771,��,2.6,��
2018/10/10,09:20,0.799,1.205,0.845,1.502,1.080,0.465,0.814,0.768,��,2.6,��
2018/10/10,09:30,0.797,1.203,0.843,1.501,1.083,0.464,0.814,0.767,���k��,3.1,��
2018/10/10,09:40,0.797,1.203,0.842,1.506,1.084,0.465,0.813,0.767,��,3.8,��
2018/10/10,09:50,0.800,1.204,0.843,1.501,1.084,0.464,0.815,0.769,��,3.2,��
2018/10/10,10:00,0.798,1.204,0.845,1.503,1.084,0.465,0.815,0.768,��,3.2,��
2018/10/10,10:10,0.799,1.204,0.844,1.503,1.084,0.466,0.813,0.768,��,3.0,��
2018/10/10,10:20,0.801,1.204,0.844,1.506,1.085,0.462,0.815,0.768,��,2.2,��
2018/10/10,10:30,0.799,1.205,0.845,1.504,1.084,0.464,0.815,0.769,��,2.5,��
2018/10/10,10:40,0.800,1.204,0.845,1.502,1.086,0.467,0.815,0.768,���쓌,3.2,��
2018/10/10,10:50,0.801,1.205,0.846,1.504,1.086,0.466,0.815,0.768,��,3.1,��
2018/10/10,11:00,0.799,1.207,0.848,1.503,1.086,0.465,0.814,0.769,��,3.3,��
2018/10/10,11:10,0.799,1.209,0.845,1.502,1.089,0.466,0.818,0.768,���쓌,3.2,��
2018/10/10,11:20,0.798,1.208,0.848,1.505,1.086,0.466,0.815,0.769,���쓌,3.6,��
2018/10/10,11:30,0.800,1.209,0.847,1.508,1.086,0.465,0.815,0.767,���쓌,3.8,��
2018/10/10,11:40,0.801,1.206,0.846,1.505,1.089,0.464,0.818,0.767,���쓌,3.3,��
2018/10/10,11:50,0.802,1.206,0.851,1.504,1.088,0.466,0.817,0.769,��,3.3,��
2018/10/10,12:00,0.801,1.209,0.849,1.504,1.089,0.466,0.814,0.768,���쓌,3.0,��
2018/10/10,12:10,0.801,1.210,0.848,1.503,1.088,0.467,0.816,0.769,��,3.3,��
2018/10/10,12:20,0.802,1.208,0.848,1.506,1.086,0.465,0.816,0.769,���쓌,2.6,��
2018/10/10,12:30,0.800,1.208,0.847,1.504,1.088,0.465,0.817,0.771,�쓌,3.1,��
2018/10/10,12:40,0.802,1.210,0.847,1.508,1.089,0.466,0.817,0.769,�쓌,3.5,��
2018/10/10,12:50,0.800,1.207,0.847,1.509,1.089,0.467,0.815,0.769,�쓌,3.1,��
2018/10/10,13:00,0.803,1.208,0.849,1.507,1.089,0.466,0.815,0.769,�쓌,3.6,��
2018/10/10,13:10,0.802,1.207,0.847,1.505,1.088,0.465,0.816,0.767,���쓌,2.6,��
2018/10/10,13:20,0.799,1.208,0.849,1.508,1.090,0.467,0.816,0.767,���쓌,3.4,��
2018/10/10,13:30,0.802,1.209,0.848,1.507,1.091,0.467,0.817,0.767,�쓌,4.2,��
2018/10/10,13:40,0.802,1.211,0.849,1.508,1.089,0.467,0.817,0.769,���쓌,4.5,��
2018/10/10,13:50,0.802,1.208,0.849,1.504,1.088,0.468,0.816,0.768,�쓌,4.6,��
2018/10/10,14:00,0.802,1.209,0.848,1.507,1.090,0.466,0.817,0.770,���쓌,3.1,��
2018/10/10,14:10,0.804,1.209,0.851,1.507,1.092,0.466,0.818,0.768,�쓌,2.6,��
2018/10/10,14:20,0.800,1.208,0.850,1.507,1.092,0.468,0.816,0.768,���쓌,2.8,��
2018/10/10,14:30,0.801,1.210,0.851,1.505,1.093,0.466,0.817,0.767,�쓌,3.6,��
2018/10/10,14:40,0.802,1.211,0.850,1.506,1.093,0.467,0.815,0.768,�쓌,3.2,��
2018/10/10,14:50,0.799,1.211,0.848,1.505,1.092,0.467,0.816,0.771,�쓌,3.0,��
2018/10/10,15:00,0.801,1.212,0.851,1.507,1.093,0.466,0.816,0.768,�쓌,3.8,��
2018/10/10,15:10,0.802,1.213,0.849,1.504,1.092,0.467,0.817,0.769,�쓌,4.0,��
2018/10/10,15:20,0.803,1.211,0.850,1.508,1.090,0.466,0.815,0.769,�쓌,3.3,��
2018/10/10,15:30,0.801,1.211,0.849,1.507,1.089,0.467,0.816,0.768,��쓌,3.5,��
2018/10/10,15:40,0.801,1.213,0.848,1.507,1.089,0.467,0.816,0.768,��쓌,3.6,��
2018/10/10,15:50,0.803,1.213,0.848,1.506,1.091,0.467,0.816,0.767,��쓌,3.0,��
2018/10/10,16:00,0.804,1.216,0.849,1.508,1.091,0.465,0.815,0.768,��쓌,3.2,��
2018/10/10,16:10,0.804,1.216,0.848,1.508,1.086,0.467,0.818,0.767,��쓌,2.9,��
2018/10/10,16:20,0.803,1.214,0.850,1.508,1.090,0.468,0.816,0.769,�쓌,2.8,��
2018/10/10,16:30,0.803,1.217,0.851,1.506,1.089,0.469,0.814,0.768,��쓌,2.6,��
2018/10/10,16:40,0.803,1.216,0.850,1.513,1.092,0.468,0.817,0.768,�쓌,2.9,��
2018/10/10,16:50,0.805,1.216,0.852,1.509,1.092,0.468,0.816,0.770,�쓌,2.9,��
2018/10/10,17:00,0.805,1.219,0.852,1.507,1.090,0.467,0.816,0.770,��쓌,3.5,��
2018/10/10,17:10,0.805,1.220,0.853,1.509,1.090,0.468,0.817,0.771,��쓌,3.3,��
2018/10/10,17:20,0.805,1.217,0.851,1.509,1.091,0.468,0.819,0.771,��쓌,3.2,��
2018/10/10,17:30,0.804,1.220,0.853,1.510,1.090,0.469,0.816,0.770,��쓌,2.9,��
2018/10/10,17:40,0.803,1.219,0.853,1.509,1.091,0.467,0.817,0.770,��쓌,3.6,��
2018/10/10,17:50,0.804,1.218,0.853,1.508,1.090,0.469,0.817,0.770,��쓌,3.5,��
2018/10/10,18:00,0.805,1.217,0.854,1.509,1.093,0.468,0.817,0.771,��쓌,2.6,��
2018/10/10,18:10,0.805,1.218,0.853,1.507,1.093,0.468,0.817,0.770,��쓌,2.0,��
2018/10/10,18:20,0.806,1.217,0.853,1.507,1.091,0.468,0.818,0.771,��,1.2,��
2018/10/10,18:30,0.805,1.217,0.851,1.510,1.093,0.467,0.817,0.771,��쓌,2.3,��
2018/10/10,18:40,0.803,1.217,0.853,1.511,1.093,0.468,0.816,0.772,�쓌,2.3,��
2018/10/10,18:50,0.804,1.221,0.853,1.509,1.092,0.468,0.817,0.771,��쓌,2.2,��
2018/10/10,19:00,0.805,1.218,0.852,1.509,1.094,0.467,0.816,0.770,��쓌,1.7,��
2018/10/10,19:10,0.805,1.218,0.854,1.510,1.093,0.468,0.816,0.772,��쓌,2.0,��
2018/10/10,19:20,0.805,1.220,0.853,1.510,1.092,0.469,0.817,0.771,��,2.5,��
2018/10/10,19:30,0.805,1.218,0.854,1.511,1.092,0.467,0.816,0.771,��,2.0,��
2018/10/10,19:40,0.805,1.218,0.853,1.510,1.093,0.467,0.816,0.772,��,1.7,��
2018/10/10,19:50,0.803,1.218,0.852,1.511,1.093,0.468,0.817,0.770,��,1.9,��
2018/10/10,20:00,0.804,1.218,0.854,1.509,1.091,0.468,0.817,0.772,��,1.2,��
2018/10/10,20:10,0.803,1.221,0.853,1.510,1.094,0.469,0.817,0.771,��쐼,1.1,��
2018/10/10,20:20,0.803,1.219,0.854,1.509,1.094,0.470,0.815,0.770,��쐼,1.4,��
2018/10/10,20:30,0.803,1.219,0.852,1.512,1.094,0.468,0.816,0.770,��쐼,1.4,��
2018/10/10,20:40,0.805,1.217,0.852,1.510,1.092,0.468,0.816,0.772,��쐼,0.9,��
2018/10/10,20:50,0.804,1.216,0.852,1.509,1.091,0.470,0.816,0.770,�쐼,1.2,��
2018/10/10,21:00,0.803,1.216,0.851,1.508,1.092,0.467,0.816,0.772,��,1.1,��
2018/10/10,21:10,0.802,1.216,0.854,1.507,1.093,0.469,0.817,0.772,��쓌,0.9,��
2018/10/10,21:20,0.804,1.216,0.852,1.508,1.091,0.468,0.817,0.770,��,1.2,��
2018/10/10,21:30,0.805,1.216,0.852,1.510,1.092,0.468,0.816,0.769,��쐼,2.0,��
2018/10/10,21:40,0.803,1.214,0.853,1.508,1.092,0.468,0.818,0.770,��,1.9,��
2018/10/10,21:50,0.803,1.216,0.853,1.511,1.092,0.468,0.816,0.771,�쐼,1.7,��
2018/10/10,22:00,0.801,1.216,0.851,1.511,1.092,0.468,0.817,0.771,�쐼,2.0,��
2018/10/10,22:10,0.804,1.217,0.853,1.511,1.091,0.467,0.817,0.770,��쐼,1.5,��
2018/10/10,22:20,0.802,1.215,0.852,1.509,1.089,0.469,0.818,0.770,��,1.2,��
2018/10/10,22:30,0.805,1.216,0.853,1.509,1.091,0.468,0.819,0.770,��쐼,2.0,��
2018/10/10,22:40,0.804,1.215,0.851,1.511,1.093,0.468,0.817,0.771,��쐼,2.9,��
2018/10/10,22:50,0.804,1.214,0.850,1.508,1.092,0.468,0.817,0.771,��쐼,1.5,��
2018/10/10,23:00,0.805,1.212,0.852,1.509,1.093,0.468,0.816,0.771,�쐼,0.8,��
2018/10/10,23:10,0.805,1.215,0.852,1.511,1.090,0.468,0.819,0.771,��쐼,0.9,��
2018/10/10,23:20,0.806,1.214,0.851,1.511,1.091,0.468,0.817,0.771,�쐼,1.5,��
2018/10/10,23:30,0.804,1.213,0.852,1.508,1.092,0.467,0.816,0.770,�쐼,2.0,��
2018/10/10,23:40,0.802,1.215,0.853,1.510,1.093,0.469,0.818,0.771,���쐼,2.2,��
2018/10/10,23:50,0.803,1.215,0.851,1.509,1.092,0.469,0.818,0.771,���쐼,2.0,��
